Date String (YYYY-MM-DD hh:mm:ss) UTC,Instrument flags,Ambient pressure (hPa),Sample flow (lpm),Bypass flow (lpm),Sample temperature (°C),Ambient temperature (°C),ASC tube jacket temperature (°C),LED temperature (°C),Box temperature (°C),Sample RH (%),Span deviation,Mass concentration (μg/m³),Mass concentration (μg/m³),Mass concentration (μg/m³)
DateTimeUTC,F1_M11,P_M11,Q1_M11,Q2_M11,T1_M11,T2_M11,T3_M11,T4_M11,T5_M11,U1_M11,ZSPAN_M11,X0_M11,X2_M11,X1_M11
2023-02-02 11:00:00,,0829.0,5.02,0.00,22.8,22.7,00.0,31.4,24.8,09.0,0000.0,0011.99,0006.46,0005.99
2023-02-02 11:01:00,,0829.0,5.01,0.00,22.9,23.2,00.0,31.5,24.9,09.0,0000.0,0012.41,0006.48,0005.99
2023-02-02 11:02:00,,0829.1,5.01,0.00,22.9,22.8,00.0,31.5,24.9,09.0,0000.0,0012.27,0006.52,0005.99
2023-02-02 11:03:00,,0829.1,5.01,0.00,22.9,22.4,00.0,31.6,24.8,09.1,0000.0,0012.21,0006.47,0005.92
2023-02-02 11:04:00,,0829.0,5.00,0.00,22.9,22.1,00.0,31.6,24.7,09.1,0000.0,0012.07,0006.46,0005.87
2023-02-02 11:05:00,,0829.0,5.01,0.00,22.8,21.9,00.0,31.6,24.7,09.1,0000.0,0012.06,0006.35,0005.74
2023-02-02 11:06:00,,0829.0,4.98,0.00,22.8,21.7,00.0,31.6,24.6,09.1,0000.0,0012.10,0006.21,0005.57
2023-02-02 11:07:00,,0829.0,5.05,0.00,22.8,21.6,00.0,31.6,24.6,09.1,0000.0,0011.56,0005.97,0005.35
2023-02-02 11:08:00,,0829.1,4.98,0.00,22.8,21.5,00.0,31.6,24.6,09.0,0000.0,0011.21,0005.77,0005.13
2023-02-02 11:09:00,,0829.1,5.02,0.00,22.8,21.4,00.0,31.6,24.6,09.0,0000.0,0010.91,0005.53,0004.88
2023-02-02 11:10:00,,0829.1,4.99,0.00,22.8,21.4,00.0,31.6,24.6,09.0,0000.0,0010.64,0005.29,0004.63
2023-02-02 11:11:00,,0829.1,5.00,0.00,22.8,21.4,00.0,31.6,24.5,09.0,0000.0,0010.13,0005.01,0004.36
2023-02-02 11:12:00,,0829.1,5.00,0.00,22.8,21.3,00.0,31.6,24.5,09.0,0000.0,0009.26,0004.73,0004.11
2023-02-02 11:13:00,,0829.1,4.99,0.00,22.8,21.3,00.0,31.6,24.5,09.0,0000.0,0008.72,0004.44,0003.85
2023-02-02 11:14:00,,0829.0,5.03,0.00,22.8,21.3,00.0,31.6,24.5,09.0,0000.0,0008.40,0004.30,0003.77
2023-02-02 11:15:00,,0829.1,4.99,0.00,22.7,21.3,00.0,31.6,24.5,09.0,0000.0,0008.07,0004.16,0003.69
2023-02-02 11:16:00,,0829.2,5.04,0.00,22.7,21.2,00.0,31.6,24.5,09.0,0000.0,0007.24,0003.92,0003.51
2023-02-02 11:17:00,,0829.2,5.01,0.00,22.7,21.2,00.0,31.6,24.5,09.0,0000.0,0006.59,0003.75,0003.37
2023-02-02 11:18:00,,0829.3,5.02,0.00,22.7,21.1,00.0,31.6,24.4,09.0,0000.0,0006.16,0003.64,0003.28
2023-02-02 11:19:00,,0829.3,4.98,0.00,22.7,21.0,00.0,31.6,24.4,09.0,0000.0,0005.97,0003.58,0003.23
2023-02-02 11:20:00,,0829.3,4.98,0.00,22.6,21.0,00.0,31.6,24.4,09.0,0000.0,0006.23,0003.56,0003.22
2023-02-02 11:21:00,,0829.3,5.03,0.00,22.6,21.0,00.0,31.5,24.4,09.0,0000.0,0006.20,0003.56,0003.23
2023-02-02 11:22:00,,0829.3,4.99,0.00,22.6,21.0,00.0,31.5,24.3,09.0,0000.0,0006.30,0003.58,0003.25
2023-02-02 11:23:00,,0829.3,4.97,0.00,22.6,21.0,00.0,31.5,24.3,08.9,0000.0,0006.24,0003.60,0003.27
2023-02-02 11:24:00,,0829.4,4.99,0.00,22.6,21.6,00.0,31.5,24.5,08.9,0000.0,0006.26,0003.61,0003.29
2023-02-02 11:25:00,,0829.5,5.03,0.00,22.7,22.5,00.0,31.5,24.7,08.9,0000.0,0005.95,0003.47,0003.14
2023-02-02 11:26:00,,0829.5,5.00,0.00,22.8,23.1,00.0,31.5,24.9,08.9,0000.0,0006.40,0003.24,0002.78
2023-02-02 11:27:00,,0829.5,4.99,0.00,22.9,22.7,00.0,31.5,24.8,08.8,0000.0,0006.86,0003.18,0002.65
2023-02-02 11:28:00,,0829.5,5.00,0.00,22.9,22.4,00.0,31.6,24.7,08.9,0000.0,0007.25,0003.17,0002.62
2023-02-02 11:29:00,,0829.5,5.01,0.00,22.8,22.1,00.0,31.6,24.6,08.9,0000.0,0007.06,0003.14,0002.59
2023-02-02 11:30:00,,0829.5,4.99,0.00,22.8,21.8,00.0,31.6,24.6,08.9,0000.0,0006.71,0003.05,0002.55
2023-02-02 11:31:00,,0829.6,5.03,0.00,22.8,21.7,00.0,31.6,24.6,08.9,0000.0,0006.54,0003.01,0002.52
2023-02-02 11:32:00,,0829.6,4.98,0.00,22.8,21.6,00.0,31.6,24.6,08.9,0000.0,0007.49,0003.02,0002.51
2023-02-02 11:33:00,,0829.5,5.01,0.00,22.8,21.5,00.0,31.6,24.6,08.9,0000.0,0007.55,0003.02,0002.48
2023-02-02 11:34:00,,0829.6,4.99,0.00,22.8,21.4,00.0,31.6,24.6,08.9,0000.0,0007.48,0003.02,0002.50
2023-02-02 11:35:00,,0829.6,5.02,0.00,22.8,21.3,00.0,31.6,24.5,08.9,0000.0,0007.53,0003.05,0002.55
2023-02-02 11:36:00,,0829.6,5.00,0.00,22.8,21.3,00.0,31.6,24.5,08.9,0000.0,0007.67,0003.17,0002.71
2023-02-02 11:37:00,,0829.5,5.01,0.00,22.8,21.3,00.0,31.6,24.5,08.9,0000.0,0007.37,0003.28,0002.85
2023-02-02 11:38:00,,0829.5,5.00,0.00,22.7,21.2,00.0,31.6,24.5,08.9,0000.0,0007.42,0003.41,0003.06
2023-02-02 11:39:00,,0829.5,4.98,0.00,22.7,21.1,00.0,31.6,24.4,08.9,0000.0,0007.34,0003.54,0003.20
2023-02-02 11:40:00,,0829.6,5.02,0.00,22.7,21.1,00.0,31.6,24.4,09.0,0000.0,0007.53,0003.67,0003.32
2023-02-02 11:41:00,,0829.6,4.97,0.00,22.7,21.0,00.0,31.6,24.4,09.0,0000.0,0007.69,0003.79,0003.42
2023-02-02 11:42:00,,0829.5,5.03,0.00,22.7,21.0,00.0,31.6,24.4,09.0,0000.0,0007.63,0003.84,0003.46
2023-02-02 11:43:00,,0829.5,4.99,0.00,22.7,21.0,00.0,31.6,24.4,09.0,0000.0,0006.84,0003.84,0003.48
2023-02-02 11:44:00,,0829.6,5.00,0.00,22.6,21.0,00.0,31.5,24.3,09.0,0000.0,0006.69,0003.81,0003.49
2023-02-02 11:45:00,,0829.5,5.00,0.00,22.6,21.1,00.0,31.5,24.3,09.0,0000.0,0006.72,0003.78,0003.46
2023-02-02 11:46:00,,0829.5,5.00,0.00,22.6,21.1,00.0,31.5,24.3,09.0,0000.0,0006.60,0003.75,0003.43
2023-02-02 11:47:00,,0829.6,4.97,0.00,22.6,21.1,00.0,31.5,24.3,09.0,0000.0,0006.49,0003.72,0003.40
2023-02-02 11:48:00,,0829.5,5.00,0.00,22.6,21.0,00.0,31.5,24.3,09.0,0000.0,0006.21,0003.68,0003.39
2023-02-02 11:49:00,,0829.5,4.98,0.00,22.6,21.2,00.0,31.5,24.4,09.0,0000.0,0005.79,0003.63,0003.36
2023-02-02 11:50:00,,0829.6,5.01,0.00,22.7,22.0,00.0,31.4,24.6,09.0,0000.0,0005.57,0003.55,0003.32
2023-02-02 11:51:00,,0829.5,4.98,0.00,22.8,23.0,00.0,31.4,24.8,09.0,0000.0,0005.52,0003.52,0003.27
2023-02-02 11:52:00,,0829.6,5.01,0.00,22.9,23.0,00.0,31.5,24.9,08.9,0000.0,0005.68,0003.52,0003.24
2023-02-02 11:53:00,,0829.6,5.01,0.00,22.9,22.6,00.0,31.5,24.8,08.9,0000.0,0005.71,0003.52,0003.24
2023-02-02 11:54:00,,0829.6,5.00,0.00,22.9,22.3,00.0,31.6,24.7,08.9,0000.0,0005.89,0003.56,0003.25
2023-02-02 11:55:00,,0829.6,5.01,0.00,22.8,22.0,00.0,31.6,24.7,08.9,0000.0,0006.01,0003.62,0003.29
2023-02-02 11:56:00,,0829.6,5.00,0.00,22.8,21.8,00.0,31.6,24.6,08.9,0000.0,0006.37,0003.69,0003.34
2023-02-02 11:57:00,,0829.7,4.98,0.00,22.8,21.6,00.0,31.6,24.6,09.0,0000.0,0006.43,0003.74,0003.38
2023-02-02 11:58:00,,0829.7,4.97,0.00,22.8,21.5,00.0,31.6,24.6,09.0,0000.0,0006.50,0003.78,0003.42
2023-02-02 11:59:00,,0829.6,4.99,0.00,22.8,21.4,00.0,31.6,24.5,09.0,0000.0,0006.68,0003.80,0003.44
